Theta_e
314 313 314 315 316 316 317 318 319 320 320 320 321 320 319 319 318 318 318 317 316 315 316 315 314 314 314 315 317 318 317 318 316 313 313 313 312 312 312 314 315 314 313 315 315 316 316 316 314 314 316 319 317 318 318 320 327 336 339 333 322 322 321 319 321 318 320 323 317 312 313 317 315 309 305 305 306 305 305 305 303 301 300 300 300 300 300 300
313 313 313 314 314 315 316 316 317 318 319 319 320 320 319 319 318 318 317 317 317 316 316 315 315 314 314 315 316 317 316 317 318 314 313 313 311 312 312 314 315 314 313 313 315 315 317 319 314 315 323 322 316 319 321 317 325 338 334 324 321 327 321 317 322 316 315 318 316 314 313 314 315 312 306 309 309 304 307 306 302 302 301 299 299 299 299 298
313 314 314 314 314 315 315 315 316 316 317 318 318 319 319 318 318 318 318 316 317 317 316 316 316 314 315 315 316 317 315 317 318 315 314 313 311 312 312 314 315 314 313 313 314 313 315 317 311 316 327 323 317 321 326 319 320 327 325 321 326 332 323 315 319 319 316 315 317 315 311 311 312 310 308 311 311 305 309 308 304 305 301 301 299 297 298 297
313 314 314 315 315 315 315 315 315 315 316 316 317 318 318 318 317 317 318 317 316 317 317 316 316 315 315 314 316 316 315 318 318 315 314 313 312 312 311 313 314 313 313 312 313 313 313 312 311 318 323 320 323 324 323 319 317 317 318 319 323 325 319 316 317 319 317 312 316 316 311 311 309 308 308 310 312 309 309 307 308 307 301 301 300 297 297 296
311 312 313 314 315 315 315 315 315 315 316 316 316 317 317 317 317 317 317 317 315 317 317 317 317 316 315 314 316 316 317 321 318 314 314 312 312 312 311 311 312 314 313 312 312 313 312 310 314 327 325 320 329 327 318 316 314 314 314 315 319 318 314 316 317 316 314 311 315 316 312 312 308 308 309 310 314 314 309 307 306 304 300 300 300 297 296 295
309 310 311 312 313 314 314 314 314 314 315 315 315 315 316 316 316 316 317 317 315 316 316 316 316 316 316 315 315 315 317 320 316 314 314 313 312 312 312 311 311 313 312 312 311 313 315 314 320 329 326 322 322 320 316 315 314 314 314 313 317 317 314 316 317 315 313 312 315 315 312 310 308 310 310 309 313 313 307 306 305 301 299 298 297 297 297 296
309 308 309 309 310 311 312 313 313 313 313 313 314 314 315 315 315 316 316 317 315 316 315 315 316 316 316 315 316 319 321 321 316 315 314 313 312 312 312 311 311 313 313 312 311 316 321 319 321 323 322 321 317 315 315 314 316 317 316 315 315 314 314 315 315 316 313 313 314 310 309 310 312 312 310 309 311 309 303 301 301 299 297 297 297 297 297 296
308 308 308 308 309 309 310 311 311 311 311 312 312 313 314 314 314 315 316 316 315 315 314 314 316 316 317 316 319 325 325 321 316 314 315 314 313 312 313 311 310 312 313 311 311 317 322 319 317 317 319 318 315 314 314 313 318 318 316 316 315 313 315 315 314 316 315 313 310 307 309 311 313 310 310 313 310 306 301 299 298 297 297 297 298 298 296 295
309 309 309 309 309 309 309 309 310 310 310 310 311 311 312 313 313 314 315 316 315 315 314 313 315 316 317 316 317 324 322 317 315 313 314 314 313 312 312 311 310 311 312 311 310 312 317 318 315 315 317 317 313 314 315 315 315 315 315 317 316 313 315 314 313 316 315 312 309 308 311 311 309 308 310 314 309 302 300 300 299 298 298 298 298 297 296 294
310 310 310 310 309 309 309 309 309 309 309 310 310 310 311 312 313 313 314 315 315 315 313 313 315 316 316 315 315 320 318 314 313 312 313 313 313 313 312 311 310 311 311 311 311 312 314 315 314 314 318 317 313 313 313 313 313 313 315 315 313 312 312 311 312 313 311 310 309 309 312 311 306 307 311 311 303 300 301 300 299 298 298 298 297 296 294 294
311 311 310 310 310 310 309 309 309 309 309 309 309 309 310 311 311 312 314 315 315 314 313 314 315 316 315 315 320 321 315 313 312 311 312 312 312 312 311 310 310 310 311 311 311 311 312 312 310 312 315 315 313 313 311 310 311 312 313 313 313 315 312 308 310 310 308 309 310 309 310 310 307 308 312 308 299 299 302 300 298 298 298 297 297 297 294 293
312 311 311 311 311 310 310 310 309 309 309 308 309 309 309 310 311 312 314 314 315 314 313 314 315 316 315 315 321 321 315 314 312 311 311 310 312 312 310 310 310 310 311 311 311 311 312 311 310 313 314 312 313 313 311 310 310 311 313 313 317 323 317 308 310 310 308 310 311 310 310 311 310 311 311 304 298 299 301 300 298 298 297 297 297 297 295 294
313 312 311 311 311 310 310 310 309 309 309 309 309 309 309 310 310 312 313 314 314 314 314 315 315 315 315 318 319 316 315 314 311 310 310 310 312 313 310 310 311 310 311 311 310 310 311 311 311 313 313 315 316 311 311 311 311 311 311 314 319 326 322 310 309 309 308 311 312 311 313 315 314 312 308 300 298 300 300 299 298 297 297 297 297 297 296 294
313 313 312 311 311 311 310 310 310 309 309 309 309 309 309 309 310 312 313 314 314 314 314 314 315 314 315 319 316 313 315 313 311 311 310 309 312 314 311 310 311 311 311 311 310 310 311 310 309 312 312 313 312 307 314 321 318 315 311 319 322 320 325 318 311 312 309 310 310 310 315 315 315 315 306 298 298 300 302 299 297 298 297 297 296 296 297 295
313 313 313 312 312 311 311 310 310 310 309 309 308 308 309 309 311 312 313 314 313 314 315 314 315 314 317 320 314 313 315 312 311 311 311 310 311 312 310 310 312 311 311 311 310 310 310 310 312 315 313 310 312 315 323 328 326 321 314 324 327 317 325 325 312 312 312 310 309 310 316 315 313 315 304 297 298 300 302 300 297 298 296 296 296 295 296 296
313 314 313 313 312 311 311 310 310 310 309 309 309 309 309 310 312 313 314 314 314 314 314 316 316 315 319 319 314 314 314 313 313 312 312 312 310 311 310 311 312 311 311 310 311 310 309 313 314 312 312 310 320 330 329 329 333 329 318 321 329 320 320 321 312 310 312 311 309 309 315 315 313 312 302 297 298 299 301 300 297 297 296 296 295 295 296 296
313 314 313 313 313 312 312 310 310 310 309 309 309 308 309 311 313 313 314 314 315 316 316 317 316 315 317 316 315 317 314 312 315 315 313 313 311 310 310 310 310 309 311 310 311 312 310 313 312 311 318 317 322 332 327 329 337 334 323 320 325 319 315 319 316 311 309 310 311 311 312 312 312 312 304 298 298 299 300 300 298 297 296 295 295 295 295 296
314 314 313 313 313 313 312 311 311 310 310 309 309 310 310 312 313 313 315 314 315 315 316 317 314 314 315 314 315 316 313 312 315 315 313 313 311 310 311 309 308 309 314 315 312 315 313 315 319 323 330 325 324 331 328 329 331 327 324 321 322 319 314 317 317 311 308 309 311 312 311 311 310 310 308 301 298 299 300 300 299 297 296 296 295 295 295 295
313 313 312 313 313 313 313 311 311 310 310 310 309 310 310 313 314 314 313 312 314 315 314 317 316 315 313 313 315 313 313 314 314 313 312 313 310 310 311 309 311 313 316 321 316 316 318 321 324 325 328 328 326 326 326 332 329 321 321 320 319 319 315 314 314 310 307 308 310 309 309 310 309 308 309 304 298 298 300 299 299 298 296 295 295 295 295 295
313 312 311 312 313 313 313 312 311 311 311 311 311 311 314 318 320 320 317 313 314 313 314 318 318 317 314 314 315 313 314 313 312 313 312 311 309 310 311 309 316 318 318 326 322 316 318 322 323 324 326 329 329 322 320 325 320 314 316 316 315 315 313 312 311 309 307 308 311 309 308 309 308 308 308 306 302 299 299 299 299 298 297 296 295 295 295 295
311 311 311 312 312 313 313 312 312 311 312 313 312 312 314 316 316 316 316 318 313 305 311 315 311 314 313 312 314 313 314 315 312 312 311 311 310 311 314 312 316 321 320 323 321 317 318 320 326 333 329 323 324 318 314 315 312 311 314 314 314 313 312 310 308 310 309 308 312 312 310 309 308 308 308 308 306 303 300 300 300 299 298 297 296 295 295 295
312 311 311 311 311 312 312 312 312 312 312 312 310 309 308 310 312 309 309 318 317 305 309 312 308 312 311 310 313 311 315 319 317 314 311 310 310 312 316 315 317 323 320 317 319 323 323 322 329 332 321 314 314 312 312 313 312 313 313 312 315 314 314 314 310 310 310 308 312 314 310 309 308 308 308 308 308 305 303 301 302 300 299 298 297 296 296 296
312 311 311 311 311 311 312 313 313 312 312 311 309 308 307 309 311 309 309 317 320 314 316 317 316 318 316 313 312 312 317 320 318 316 310 309 312 314 316 316 318 322 318 318 322 324 326 327 324 318 313 313 313 311 313 313 312 314 313 313 317 314 316 320 315 312 311 309 311 312 309 307 307 307 307 308 307 307 305 303 303 301 301 299 298 297 296 296
313 313 313 311 310 311 312 313 313 311 312 311 308 307 309 310 310 311 314 316 318 319 318 315 316 322 321 313 311 315 319 317 316 314 308 310 313 312 314 317 318 319 318 321 324 322 326 322 311 309 311 314 315 313 312 313 316 320 316 313 317 316 315 318 315 311 313 312 308 308 312 314 312 309 308 308 307 307 305 304 304 302 301 301 299 298 297 296
313 314 313 311 310 312 312 312 311 309 311 312 308 307 308 310 310 310 314 314 315 318 314 311 314 320 317 311 311 313 314 314 314 310 305 308 313 310 312 313 314 319 320 320 320 321 323 313 306 311 312 312 315 316 317 317 318 324 322 315 315 316 314 314 314 312 316 320 311 309 317 320 315 312 311 310 309 310 307 305 305 302 300 301 300 299 298 297
313 312 311 311 310 312 312 313 311 308 311 312 310 308 307 310 311 310 314 313 313 318 315 312 316 317 313 311 312 311 315 316 309 305 305 306 309 310 312 312 312 318 320 319 320 321 318 308 308 317 315 313 313 317 320 317 316 322 321 315 313 313 312 313 313 312 319 321 311 310 318 318 314 314 318 316 313 314 311 308 307 303 301 300 300 299 298 297
312 311 311 311 311 312 313 314 311 308 312 314 311 308 305 309 309 308 311 310 311 319 319 315 313 314 314 311 310 312 319 317 306 304 305 306 307 308 313 316 312 314 313 315 320 320 313 309 312 315 316 316 314 319 320 314 319 323 316 315 316 313 313 314 311 310 315 313 309 310 312 313 312 313 315 314 313 313 310 309 307 304 302 300 300 299 298 297
312 311 311 311 312 312 312 313 311 307 312 313 308 306 307 308 308 309 310 307 311 319 320 317 313 312 312 308 309 313 314 312 312 308 303 304 307 308 314 318 319 317 311 315 323 319 312 315 317 315 316 318 318 325 320 313 320 321 311 311 313 312 313 313 309 310 311 309 312 313 308 310 314 313 311 309 309 312 313 314 311 307 305 301 300 299 298 298
312 311 310 311 312 312 311 313 310 307 311 311 306 306 308 306 307 311 310 307 314 320 316 315 313 311 313 310 311 315 311 311 314 309 304 304 306 308 312 316 320 317 310 314 323 318 312 313 314 316 318 319 319 318 312 313 316 312 307 309 311 311 311 311 310 312 312 313 317 315 310 313 317 317 313 308 309 313 315 317 314 309 307 303 300 299 298 297
311 310 310 312 313 312 311 313 310 308 310 309 307 306 307 309 309 309 308 308 314 317 313 313 314 314 315 315 315 314 313 313 310 307 307 307 307 309 308 309 315 317 316 318 320 317 311 306 307 314 315 316 316 309 304 309 311 306 309 313 315 314 310 310 312 312 316 319 318 314 311 313 318 318 314 312 316 319 317 317 316 313 312 307 301 299 298 297
311 310 311 313 313 312 312 312 310 309 308 307 307 306 309 317 318 311 309 309 310 314 315 316 315 315 317 320 321 316 313 315 311 308 310 308 309 312 309 309 314 320 325 323 319 317 311 308 310 312 311 311 314 310 304 306 307 308 315 318 319 320 315 315 316 315 318 320 317 311 308 310 316 317 314 314 316 317 319 321 320 319 318 311 303 298 297 297
312 311 311 313 314 312 312 312 310 310 308 306 307 310 314 318 315 312 310 309 310 314 319 321 316 316 318 319 321 317 315 317 312 309 313 312 311 313 313 316 318 320 325 324 320 320 317 314 312 309 307 309 317 317 309 308 308 310 316 319 321 323 323 323 321 318 321 321 311 305 307 310 312 313 313 314 315 314 315 316 317 317 316 312 305 299 297 296
313 312 311 312 313 312 311 311 312 312 308 305 308 315 319 315 310 311 312 310 311 314 319 323 319 318 318 319 322 318 315 319 314 309 313 313 311 313 314 318 318 316 321 320 318 321 320 316 310 309 310 310 315 317 315 315 312 309 314 319 321 324 328 331 325 317 318 320 309 303 309 313 312 313 313 311 312 313 311 310 311 312 311 309 305 300 297 296
313 313 312 311 312 313 312 311 311 312 309 306 310 317 318 314 310 312 313 311 311 315 319 321 318 317 318 320 324 320 316 319 315 310 313 313 313 316 316 315 314 317 322 319 318 321 321 319 315 313 314 311 310 312 317 319 311 308 313 317 320 326 330 331 329 322 318 321 312 304 311 318 315 314 314 311 309 310 311 309 308 308 305 303 302 300 297 295
312 313 311 310 311 312 313 311 311 312 309 307 310 316 313 311 313 315 315 312 313 317 319 318 317 317 318 320 322 320 317 317 316 313 314 315 316 320 319 315 313 318 323 320 321 321 317 319 317 310 309 308 308 310 313 316 313 309 311 314 318 322 322 320 322 320 317 319 315 309 313 318 312 310 312 311 312 310 308 306 305 305 302 300 301 300 297 294
312 312 311 311 311 311 313 312 311 311 309 307 311 315 310 309 315 316 314 313 315 320 319 317 319 319 320 323 322 319 315 314 316 315 315 315 316 318 320 319 313 313 317 318 321 320 317 319 312 305 307 306 304 307 308 313 316 311 309 315 315 313 316 321 319 313 311 315 317 314 315 313 310 311 309 308 310 308 305 303 305 303 300 301 302 299 297 294
313 313 312 312 310 310 312 312 312 311 308 306 311 314 310 311 316 316 315 313 315 321 320 316 317 319 323 324 323 320 316 314 314 316 318 316 316 318 318 319 316 312 313 316 319 320 318 318 311 307 312 305 298 302 306 307 309 312 315 315 309 307 312 319 320 316 314 316 318 317 315 311 311 312 308 306 310 309 305 304 304 302 300 301 302 299 296 293
313 312 311 312 310 310 312 312 312 310 306 306 310 314 313 312 311 311 316 315 314 318 319 314 313 317 322 322 322 320 316 316 316 317 320 317 315 317 315 316 316 312 312 314 316 319 316 315 314 306 308 304 299 304 309 304 301 308 313 307 307 314 314 313 316 319 318 317 319 320 315 311 312 313 310 311 313 312 310 307 304 302 301 300 300 298 295 293
313 312 311 311 310 310 312 313 311 308 306 306 308 311 314 313 311 315 320 318 315 316 316 314 310 311 318 321 322 320 315 316 317 315 318 317 316 317 314 315 317 312 311 312 314 317 314 314 316 306 301 305 304 307 314 309 301 302 305 302 306 313 315 314 314 317 319 317 316 318 315 312 313 316 317 315 313 313 314 312 309 306 301 298 298 297 295 293
312 312 312 311 310 310 312 312 311 309 309 308 308 309 311 311 312 318 318 314 314 314 312 315 313 310 315 318 318 319 317 316 315 314 316 316 315 316 313 314 318 312 310 312 313 316 314 313 315 310 301 305 309 309 311 312 307 304 306 306 305 305 309 313 311 312 318 318 317 319 316 312 313 316 319 317 314 313 314 315 315 311 302 297 297 297 295 293
312 313 312 311 311 312 312 312 312 313 313 312 310 308 309 310 312 315 314 310 312 313 311 317 318 312 313 315 314 317 317 316 315 314 316 316 315 315 312 313 317 313 311 312 312 314 317 315 314 314 309 309 311 308 306 309 310 307 308 309 307 305 309 313 312 310 312 314 319 320 316 312 312 315 317 316 317 316 315 316 315 310 303 298 296 295 295 293
313 314 312 311 312 312 312 314 315 315 315 314 312 310 310 311 312 313 313 310 311 312 311 315 318 314 313 314 315 317 318 319 317 314 316 316 314 313 313 313 314 312 312 315 313 313 319 319 314 315 315 310 306 302 301 306 308 307 309 309 308 307 309 313 313 312 311 311 314 315 314 313 312 316 317 316 317 317 315 314 311 307 304 299 295 294 294 292
314 313 309 309 312 312 312 314 315 315 315 314 313 313 312 312 311 311 312 311 310 312 312 313 313 313 312 312 314 317 316 318 318 316 317 319 316 313 314 313 312 312 313 315 313 313 316 318 314 314 317 313 305 301 301 302 304 308 309 307 307 307 308 311 312 312 315 314 311 312 313 312 311 315 313 309 308 308 307 305 304 304 303 298 295 294 292 291
315 312 308 308 311 312 312 313 313 314 316 314 314 314 312 312 311 310 310 310 311 313 311 310 311 311 311 313 313 314 313 313 315 315 315 318 319 314 313 314 312 312 314 313 313 313 313 317 316 314 316 317 311 308 307 305 304 308 310 308 306 307 307 310 309 309 313 313 310 312 313 311 311 310 306 303 304 305 306 302 299 302 302 298 295 293 291 291
315 313 309 307 309 311 313 313 311 312 314 315 315 314 313 313 313 311 309 309 310 312 311 311 313 312 312 314 313 311 313 312 312 314 314 316 316 311 311 314 313 311 313 314 312 311 315 319 316 313 314 313 311 311 314 311 306 306 309 308 306 306 307 308 309 309 311 311 310 312 313 311 311 309 305 305 306 306 306 302 297 297 298 297 294 292 291 290
315 316 312 308 308 311 312 312 312 311 312 313 314 313 313 313 313 313 312 310 309 310 311 314 315 313 312 313 312 311 312 311 311 313 315 318 317 311 308 309 310 311 314 315 312 313 319 319 314 313 313 311 309 310 311 312 311 309 310 309 306 306 306 307 309 310 310 310 310 311 311 311 311 310 309 308 308 307 305 304 302 298 296 295 294 292 291 290
315 317 315 311 310 311 311 312 312 311 311 312 312 313 313 312 312 312 312 312 311 309 310 312 312 312 313 312 311 311 311 311 311 311 313 317 318 312 305 303 305 308 310 312 311 314 319 317 312 312 312 310 311 311 310 313 314 312 311 310 307 306 306 307 309 309 309 310 311 311 310 311 311 310 310 309 309 309 307 308 308 303 298 296 294 292 291 289
315 317 317 314 313 312 311 312 313 312 311 311 311 312 313 312 312 312 311 311 311 309 309 311 311 311 312 311 311 311 310 311 312 311 311 313 314 311 308 306 305 305 308 308 307 310 315 314 311 313 312 311 311 311 312 313 311 310 310 310 308 306 306 307 307 308 308 310 311 310 310 311 311 309 310 309 309 309 309 309 309 304 300 297 294 292 291 290
315 316 316 315 315 315 312 311 312 312 312 311 310 310 311 311 311 311 312 312 311 310 309 311 311 310 310 310 310 311 310 310 311 311 311 311 311 311 312 311 307 304 305 307 307 309 312 312 311 311 311 311 311 310 311 310 309 309 309 309 308 307 306 307 306 307 307 308 309 309 310 310 310 309 310 309 309 310 309 309 308 305 301 298 295 293 292 290
316 315 315 315 314 315 314 312 312 313 313 312 311 310 310 310 309 310 312 312 312 311 310 310 310 310 310 311 310 310 310 310 310 311 312 312 312 312 313 313 312 305 303 306 307 308 309 312 314 313 312 313 312 311 312 311 309 310 310 310 310 308 307 307 306 306 306 307 307 307 308 309 308 308 309 308 309 309 308 308 308 307 304 300 296 294 292 290
315 314 314 316 315 314 315 314 313 313 313 313 312 312 311 311 310 309 310 310 310 312 310 310 310 309 310 311 311 310 310 310 310 310 312 313 313 313 312 314 315 310 304 305 308 308 308 312 316 314 313 314 312 313 314 312 310 311 311 311 310 310 310 309 308 308 307 307 307 307 308 308 307 308 308 308 308 308 308 308 307 307 306 301 297 296 293 291
315 313 314 316 315 314 315 315 314 313 313 313 312 312 312 312 311 310 310 309 309 309 310 311 310 309 310 310 309 309 309 310 309 309 310 311 312 312 314 314 315 313 309 306 307 308 309 310 312 313 313 313 313 314 313 312 312 312 312 311 311 311 311 310 310 310 309 308 309 309 310 309 308 309 309 309 309 308 308 308 307 307 306 301 297 296 294 291
Wind_Speed
8 8 8 9 10 11 12 13 14 16 17 17 18 18 19 19 19 19 18 16 15 13 9 3 4 5 4 5 2 4 6 5 4 5 5 3 5 5 6 7 7 9 10 9 8 2 1 4 6 7 5 3 4 1 2 3 3 4 3 3 1 3 3 5 8 7 4 4 6 6 5 7 5 3 3 2 6 3 3 4 3 4 5 2 5 17 28 26
8 8 8 9 10 10 12 13 14 15 16 17 18 18 19 19 19 19 18 17 14 13 11 7 4 6 6 6 4 5 7 7 3 3 5 4 5 5 6 7 6 8 9 9 9 7 4 4 6 7 5 3 3 1 2 2 3 4 3 3 2 5 3 4 7 6 2 3 6 4 4 6 6 6 5 3 1 1 3 1 4 3 3 4 10 19 23 23
8 9 9 9 10 11 12 12 14 15 16 17 18 19 19 19 20 19 19 18 13 11 12 9 5 6 7 8 6 5 8 6 2 1 2 3 4 5 7 7 7 7 9 8 7 7 5 2 2 4 4 3 2 2 3 3 2 2 4 3 4 6 4 4 6 7 4 3 6 3 2 3 4 6 4 4 4 3 6 5 2 3 5 6 8 14 19 20
8 9 10 10 11 12 12 13 14 15 16 17 18 19 19 20 20 20 19 20 15 9 9 10 7 5 7 9 6 6 7 4 1 1 1 2 3 5 7 7 8 7 7 7 6 6 5 3 3 3 4 3 4 3 3 3 1 2 4 3 5 3 1 4 6 6 3 3 5 3 2 1 3 4 4 7 6 4 8 10 10 11 13 12 8 12 17 17
8 9 10 11 12 13 13 14 15 15 16 17 18 19 20 21 21 21 21 21 17 9 7 9 8 6 5 7 7 6 6 3 2 1 1 1 2 5 6 7 8 6 6 7 6 6 5 4 6 6 4 3 5 5 2 2 2 1 1 3 5 3 0 3 4 3 2 5 5 4 3 3 3 2 5 10 7 6 6 9 10 10 15 16 13 14 15 15
9 10 11 12 12 13 14 14 15 16 16 17 18 19 20 21 21 22 22 22 19 10 7 7 7 6 4 4 6 3 3 1 2 1 0 1 2 5 5 7 8 7 6 7 7 7 6 6 6 5 3 3 3 3 1 3 2 1 2 1 4 4 1 2 2 3 4 6 5 5 4 4 5 3 4 9 10 6 4 7 8 8 13 17 16 14 12 12
10 11 11 12 13 14 14 15 15 16 17 17 18 19 20 21 22 23 22 23 19 10 7 7 5 4 2 1 3 1 3 3 2 1 2 1 2 4 5 6 7 6 5 7 8 6 5 7 6 4 4 3 1 1 0 4 4 4 1 1 2 4 3 2 0 2 4 5 6 4 2 5 7 5 2 8 11 3 4 4 9 13 15 16 13 12 11 13
11 11 12 12 13 14 15 15 16 16 17 17 18 18 19 21 22 23 23 24 19 11 8 7 4 2 1 2 2 3 2 4 2 1 2 2 3 4 4 4 6 5 5 10 8 4 4 6 3 4 3 2 2 1 2 3 5 4 1 2 1 3 5 2 0 1 4 4 3 4 3 5 8 4 2 10 11 1 1 4 10 13 14 12 11 11 11 12
12 12 12 13 13 14 15 16 17 17 18 18 19 18 19 21 21 23 23 23 19 12 9 7 3 3 3 2 5 2 4 3 1 1 2 2 3 4 4 4 5 4 7 9 7 4 3 2 2 3 3 2 3 1 3 2 2 1 3 3 2 2 4 1 3 4 4 3 1 5 5 5 3 2 3 9 7 4 5 7 9 11 12 11 10 10 11 10
13 13 13 14 14 15 16 17 18 18 19 19 20 19 19 20 21 23 23 23 19 13 9 6 4 3 5 2 6 1 4 2 1 2 2 2 2 2 2 4 5 5 6 7 6 6 4 4 4 4 5 3 3 1 1 1 1 2 3 4 3 3 4 1 4 4 2 3 3 6 5 4 2 1 5 5 5 6 8 8 8 11 11 11 9 9 11 11
13 14 14 14 15 16 17 18 18 19 20 20 21 20 20 20 21 23 23 23 18 11 8 7 4 3 4 4 5 3 4 2 1 1 1 1 1 1 3 4 5 4 6 7 7 6 4 6 6 4 2 1 2 1 1 1 3 1 1 3 4 4 3 1 2 2 1 2 4 6 4 3 1 2 6 4 6 7 10 10 9 10 10 10 9 8 9 11
14 14 14 15 15 16 17 18 19 20 21 21 22 22 21 21 22 23 24 23 16 9 8 7 3 4 2 3 3 6 4 3 1 1 1 1 2 3 5 5 5 5 4 6 5 5 5 5 6 4 0 2 1 2 1 2 3 1 2 2 7 7 4 0 1 2 3 3 5 5 4 4 5 7 4 4 7 6 9 10 9 9 8 8 8 7 7 11
16 16 15 16 16 16 17 19 19 21 21 22 22 22 22 22 23 24 24 20 11 7 7 5 3 5 2 1 4 6 5 4 2 1 1 1 3 4 5 4 5 6 5 7 7 6 6 3 5 4 2 4 1 1 2 3 2 1 2 2 4 8 5 1 1 2 4 3 4 3 4 6 10 11 4 6 9 8 8 9 9 9 7 7 8 7 7 11
18 18 17 17 17 17 17 18 20 21 22 23 23 23 22 23 24 25 24 17 8 6 6 3 3 4 2 3 4 4 6 5 2 1 1 2 2 3 5 5 4 6 7 9 8 7 5 3 5 5 2 3 1 0 4 6 3 0 2 2 3 3 4 4 0 4 4 2 2 4 3 8 9 9 6 8 10 12 11 10 10 9 8 8 8 8 8 10
20 20 19 18 18 18 18 19 20 21 22 23 23 23 23 23 25 25 20 11 5 5 4 1 4 4 1 4 3 3 6 5 3 2 1 2 2 2 3 4 5 7 8 8 8 6 5 4 5 4 1 2 3 3 3 5 4 3 2 3 3 0 5 8 3 5 4 1 2 5 3 9 9 7 6 9 9 11 12 11 11 10 10 10 8 9 8 8
20 21 21 20 18 18 19 19 20 21 22 22 23 23 22 24 26 22 13 5 4 5 2 1 5 4 1 3 2 2 4 4 4 3 2 1 2 2 3 5 5 6 6 6 6 5 5 5 4 2 0 2 4 4 3 4 4 4 1 3 4 2 4 6 3 2 2 1 1 3 3 7 8 4 3 7 9 10 9 10 11 12 12 11 9 9 8 8
21 21 21 20 19 19 19 19 20 21 22 22 23 22 22 23 21 13 6 2 2 2 1 2 4 3 1 2 1 2 3 4 4 3 2 1 2 3 3 4 4 5 5 4 3 3 4 4 1 1 2 3 3 4 4 4 4 4 2 1 4 3 3 5 4 3 2 2 3 4 5 10 12 4 4 8 10 10 10 11 13 12 11 10 9 9 9 9
22 22 22 21 20 19 18 19 19 20 22 21 21 22 21 18 12 5 2 0 1 2 2 1 3 2 3 2 1 2 1 3 3 2 2 2 2 2 3 4 4 4 5 4 2 2 3 3 2 1 3 4 3 5 2 3 3 4 3 2 3 3 4 5 6 3 2 1 5 4 6 13 18 10 6 9 10 12 14 13 12 12 11 10 9 10 10 11
23 23 23 21 20 19 17 17 18 19 20 20 19 19 15 10 5 2 0 2 1 1 1 2 2 2 3 3 2 1 2 2 3 2 2 3 2 3 5 5 4 4 3 1 2 2 1 2 3 0 2 3 2 5 6 7 7 7 5 4 4 5 6 6 6 4 1 2 7 8 9 12 17 16 8 9 11 13 13 12 10 9 9 10 10 11 11 13
23 23 22 21 20 19 16 15 16 16 18 18 18 15 7 3 4 3 3 1 4 3 2 5 4 3 3 3 1 2 2 1 2 2 3 3 3 3 3 4 5 4 2 3 2 2 4 1 3 5 7 7 8 7 6 5 6 5 4 3 6 6 7 6 4 4 1 1 9 9 9 12 15 18 13 7 10 12 12 12 12 10 10 11 12 13 14 15
22 22 22 21 21 19 15 14 14 14 14 14 14 8 1 2 1 3 4 6 6 3 4 6 4 5 5 2 1 2 2 0 1 1 4 3 3 3 1 2 3 0 2 3 1 2 4 2 7 9 9 7 5 6 6 5 5 3 3 4 5 5 8 8 3 4 1 3 7 6 7 13 14 16 15 6 9 13 14 14 15 13 12 11 14 17 16 12
22 22 21 22 21 18 14 12 13 13 11 9 6 3 5 4 3 2 0 4 8 2 3 4 2 5 5 4 3 2 2 1 4 3 5 4 2 3 2 3 4 4 2 2 1 4 3 6 10 8 6 5 5 5 7 5 4 3 2 1 4 4 5 8 4 4 2 3 5 7 7 13 15 15 18 14 11 12 13 15 16 14 14 13 14 16 15 12
20 21 21 21 20 18 14 11 11 11 8 5 2 6 6 4 5 3 3 1 7 4 1 2 3 4 3 3 6 5 3 4 4 4 6 6 1 3 3 4 4 3 1 4 5 2 2 7 7 4 6 8 5 4 7 5 2 3 3 2 5 4 1 5 4 5 3 3 4 9 10 12 13 12 17 17 11 11 11 13 13 12 14 16 16 15 15 16
18 18 19 22 22 18 12 11 10 7 5 2 1 5 6 5 6 4 1 0 5 5 3 4 3 4 3 2 6 8 3 4 3 3 5 7 3 2 3 4 4 2 3 6 7 6 7 5 2 5 5 7 5 3 6 4 2 3 5 6 6 5 5 6 4 5 4 3 3 6 10 9 6 8 13 8 4 8 8 9 11 11 13 13 12 13 15 16
17 16 18 21 22 17 11 10 7 3 3 1 3 5 7 6 6 4 1 1 3 6 3 3 2 4 5 4 5 6 2 2 3 3 3 5 5 3 1 2 3 4 5 5 6 5 8 4 5 5 2 4 6 4 5 7 3 4 5 10 10 8 7 4 4 5 4 4 4 5 7 7 1 4 10 5 4 8 4 7 11 11 10 10 11 13 13 13
17 17 18 18 19 18 11 6 5 4 4 2 4 4 6 6 6 4 2 3 3 6 2 2 1 4 6 4 2 4 2 3 3 1 2 3 3 3 2 1 0 3 5 5 4 3 3 1 4 6 5 4 5 5 6 7 5 3 4 7 7 4 2 2 2 3 1 4 3 3 2 8 2 2 8 8 7 9 8 9 11 9 9 10 12 12 11 12
15 16 16 15 16 16 8 4 6 5 3 1 3 4 4 4 5 4 2 3 5 4 3 1 0 4 6 2 1 5 3 3 0 1 2 2 1 2 2 3 1 2 4 4 1 3 3 3 4 4 5 5 5 5 6 9 7 4 4 5 6 5 4 4 2 1 3 3 4 2 4 8 8 5 9 9 8 10 13 15 12 9 10 12 13 12 12 14
14 14 13 13 14 14 9 8 10 5 1 1 3 3 3 4 4 2 3 3 5 1 3 1 1 3 2 1 3 4 2 1 2 2 1 2 1 3 1 6 6 5 3 5 4 4 3 5 5 6 4 4 6 5 8 11 5 5 4 6 6 6 5 4 4 3 2 3 5 4 5 5 9 5 3 3 5 9 13 17 14 10 11 12 13 13 13 13
14 14 13 12 13 14 12 11 9 4 2 1 2 2 3 5 2 3 3 4 4 1 1 0 2 1 2 2 1 2 1 1 1 3 2 2 0 3 2 6 6 5 1 3 6 4 1 4 7 8 5 6 5 2 6 9 4 3 6 6 5 5 4 4 3 2 2 2 9 7 7 5 8 4 2 2 3 9 12 13 11 8 9 11 12 12 12 10
14 12 12 12 11 11 10 9 8 6 4 2 2 3 4 3 1 2 3 5 3 0 1 1 3 2 4 4 2 1 1 1 0 2 3 1 2 6 1 3 6 5 0 3 4 4 2 1 3 4 4 5 4 3 2 4 3 5 6 5 5 5 4 3 1 3 3 5 10 7 12 8 6 3 6 4 5 9 9 8 8 7 7 8 9 10 10 10
14 11 12 13 10 8 7 5 4 4 4 3 3 4 2 2 2 4 7 5 2 1 2 1 1 3 6 6 3 2 2 2 1 2 1 1 2 4 1 2 3 3 3 5 4 4 4 0 2 2 2 5 6 5 3 3 4 5 4 4 3 4 3 4 4 4 0 7 6 3 7 8 8 7 5 6 7 8 9 7 7 8 9 8 8 8 9 10
15 12 13 13 10 8 7 5 4 6 4 2 2 2 3 0 2 5 5 2 2 3 4 3 2 4 5 3 2 4 3 2 2 4 4 3 3 3 3 4 5 1 3 5 4 5 3 4 3 1 2 4 6 4 3 4 3 5 4 4 3 3 3 3 3 1 3 7 3 0 2 5 11 11 8 9 11 10 9 9 8 8 9 8 7 8 8 8
17 15 14 13 11 11 11 9 7 8 5 1 1 4 6 4 7 5 5 4 3 3 3 3 2 3 6 3 3 4 3 3 4 3 3 3 3 5 5 4 5 2 3 4 1 3 4 4 1 3 3 3 8 5 2 2 2 5 5 4 4 2 0 3 4 2 5 7 3 2 2 3 9 9 12 17 17 14 11 9 8 8 9 8 7 7 7 8
18 17 16 15 14 14 11 9 9 7 5 2 2 5 3 7 5 6 8 8 3 1 2 3 3 3 4 3 4 4 3 4 5 5 3 3 2 5 6 6 5 2 2 2 1 2 4 7 4 6 2 4 9 6 4 5 4 4 5 5 5 5 4 5 4 4 7 6 3 2 2 4 5 4 7 13 12 11 9 7 6 7 8 5 5 6 7 8
18 17 16 16 15 15 12 10 11 7 3 1 4 4 8 10 2 4 8 6 2 1 1 2 4 4 2 3 3 3 4 4 3 5 4 4 4 5 5 7 8 5 5 3 2 3 4 9 5 1 0 5 6 2 4 6 3 2 3 4 3 5 5 3 3 4 1 5 4 3 4 7 4 5 6 5 6 8 7 5 6 9 7 3 5 7 7 8
17 17 16 16 17 17 15 13 11 7 1 3 5 7 11 8 4 4 5 4 5 4 4 1 3 4 4 3 3 4 2 2 2 4 4 4 4 5 4 5 9 11 9 6 3 2 2 6 3 2 2 2 3 2 1 2 3 2 3 4 5 4 5 2 3 1 4 2 6 2 5 9 5 7 8 5 6 9 6 6 9 10 6 4 7 8 7 8
17 16 13 14 17 18 18 15 12 8 3 4 7 11 8 5 5 6 4 4 4 6 7 3 3 6 6 4 4 6 3 1 3 4 3 3 4 6 6 4 6 15 16 9 4 4 4 4 3 2 1 1 1 1 1 1 3 5 3 5 3 2 4 3 1 3 3 3 6 3 9 13 9 7 2 5 6 11 8 9 12 9 5 6 9 9 8 8
16 11 9 15 21 19 18 17 15 10 4 4 11 14 4 3 5 4 4 4 3 4 6 7 6 6 7 6 4 6 7 4 4 5 4 4 5 5 9 5 6 15 18 10 4 3 3 3 4 2 2 2 2 1 0 2 2 5 3 3 2 3 2 2 2 2 2 3 6 8 10 13 10 9 5 4 9 9 9 10 11 10 9 9 10 9 8 7
13 5 6 14 22 22 21 20 16 8 3 6 13 13 4 4 5 3 5 5 3 4 6 7 6 4 5 6 4 5 8 8 8 6 4 5 5 4 8 7 6 9 11 10 7 3 3 3 4 0 2 1 2 2 5 3 1 2 1 2 1 2 4 3 3 3 3 3 6 7 10 14 10 7 7 9 10 10 9 9 10 12 12 11 10 9 8 8
10 2 3 9 19 25 27 22 11 5 5 9 11 7 2 2 4 6 8 7 2 2 4 5 4 3 3 4 3 3 6 6 7 6 5 5 4 5 7 7 5 4 2 3 4 1 3 3 4 1 2 1 3 6 9 10 7 5 3 3 2 1 2 1 2 2 4 4 4 3 7 17 10 5 8 9 8 10 11 9 11 12 11 11 10 9 8 9
7 4 4 13 24 30 27 15 5 5 6 8 8 5 2 2 4 6 6 6 4 2 2 4 5 5 4 4 3 3 4 4 5 5 4 5 5 5 8 9 8 8 4 4 2 3 4 3 5 4 2 5 6 3 3 6 7 8 8 8 8 6 4 1 4 3 3 4 5 4 6 18 11 5 6 7 7 9 10 11 12 9 9 11 10 10 11 10
6 6 4 18 35 35 22 7 5 5 5 8 7 4 3 3 4 4 4 5 5 3 1 2 6 6 4 4 3 4 5 4 5 6 5 6 8 8 6 7 10 12 8 4 3 3 3 2 4 6 6 5 4 2 0 2 2 3 5 5 6 6 7 6 8 5 3 1 2 4 3 18 13 5 5 5 7 8 9 11 10 7 8 10 9 10 10 10
6 5 4 22 41 34 14 6 6 5 6 8 7 4 2 2 3 4 6 7 6 4 4 4 6 7 6 4 4 5 6 6 7 7 4 5 9 9 6 9 12 10 6 3 1 1 2 2 4 7 5 3 3 3 2 2 2 2 6 4 6 7 8 8 6 3 3 3 3 4 4 18 14 3 5 3 3 5 7 7 7 7 7 8 9 10 9 9
6 3 3 21 41 30 11 8 9 8 8 8 9 9 5 2 5 7 7 9 8 6 8 8 5 5 7 5 6 7 8 6 7 7 7 7 7 5 8 14 13 9 6 4 5 5 3 3 3 3 5 5 4 3 2 2 1 4 5 5 8 11 8 2 1 2 4 7 8 5 9 19 12 2 5 1 1 4 8 6 7 7 7 7 8 8 8 8
4 3 1 15 30 22 9 7 6 7 11 12 12 12 8 5 6 10 11 11 8 4 5 7 3 5 6 4 5 8 8 8 8 6 7 8 5 1 7 13 14 12 6 2 5 7 6 5 6 7 9 10 10 7 4 3 3 2 4 6 11 15 12 6 3 4 8 8 10 9 17 19 16 8 1 2 3 7 9 7 6 7 8 8 7 7 7 8
4 3 2 6 11 10 8 6 3 4 9 11 10 9 12 13 7 5 10 11 7 4 2 3 2 4 6 6 6 9 11 11 9 6 6 6 3 2 3 8 11 8 0 2 6 7 3 4 9 13 14 14 15 10 4 6 5 5 9 12 14 16 15 12 7 7 10 8 7 16 23 19 24 25 13 7 11 12 12 12 9 7 8 8 8 8 8 8
5 5 5 6 3 6 9 9 6 5 5 7 7 7 13 17 10 3 7 9 8 8 5 4 5 6 8 11 11 11 12 11 10 12 12 7 3 3 1 1 5 3 4 2 5 6 2 5 13 17 19 18 18 13 6 8 7 9 12 15 17 15 15 13 13 15 15 8 9 22 25 19 26 31 23 18 18 17 18 17 11 8 9 9 8 7 8 8
7 5 6 9 5 7 11 12 12 12 10 9 8 7 9 13 13 9 7 4 5 10 8 6 10 16 18 16 12 10 10 10 12 16 16 10 5 2 1 0 3 2 2 1 2 3 3 9 14 16 17 19 20 15 8 8 9 9 11 16 17 15 15 17 22 25 18 11 17 25 25 22 26 28 24 22 20 18 20 17 9 7 8 8 7 8 9 11
6 2 3 7 7 9 13 16 15 16 18 15 9 10 12 15 18 13 5 3 3 9 12 13 18 23 22 17 11 10 11 12 15 16 14 11 8 4 3 4 2 1 4 3 3 1 3 8 14 14 14 17 21 17 9 9 11 11 13 20 18 13 16 22 27 24 17 18 25 27 25 26 28 26 23 23 20 16 16 15 10 8 8 8 9 10 12 12
9 4 6 7 7 10 10 11 12 12 16 15 12 13 16 20 22 14 6 9 10 8 12 21 22 15 14 15 14 15 18 20 19 16 9 8 7 4 4 7 3 1 2 4 1 1 4 7 9 8 9 15 20 16 9 11 13 14 18 26 22 13 17 26 26 16 13 20 27 25 23 25 27 24 21 22 19 15 16 19 17 14 11 9 10 12 12 11
14 7 7 6 6 11 10 9 10 10 10 12 14 16 17 21 25 18 8 9 13 10 10 19 23 11 7 12 17 22 27 24 21 16 7 7 7 6 6 7 6 5 3 4 2 2 5 4 2 1 6 14 15 9 8 9 7 11 21 30 27 19 20 23 19 13 15 20 22 20 19 22 23 20 18 19 18 16 18 20 18 15 12 10 12 13 12 13
15 6 6 6 7 10 10 9 11 10 8 11 17 19 19 20 21 15 7 6 14 17 13 14 17 10 6 13 22 27 26 20 17 16 10 5 5 5 5 5 8 9 7 6 4 3 5 5 4 4 8 13 9 2 6 5 2 10 20 24 25 24 22 19 17 18 20 19 16 16 20 22 19 16 17 20 20 17 18 17 14 13 11 10 13 14 13 14
Wind_Direction
28 24 20 18 16 14 14 14 14 14 13 13 14 16 18 17 16 18 17 11 6 7 8 327 253 246 235 207 224 347 355 354 356 44 68 45 14 13 4 3 5 6 10 8 17 48 340 354 345 9 97 100 14 305 15 36 68 54 85 75 64 176 197 179 180 195 172 189 200 201 183 143 164 187 168 77 45 66 73 17 341 351 6 48 115 138 148 155
24 22 18 15 12 10 8 7 8 8 9 8 8 8 10 12 12 11 13 12 3 358 359 350 285 245 232 225 250 325 342 340 334 47 51 36 14 9 10 12 11 12 16 12 18 37 32 340 333 14 62 64 353 334 29 18 64 81 113 60 273 204 203 191 179 192 185 172 181 201 181 170 190 165 154 156 175 176 134 326 343 21 26 85 123 136 148 156
17 16 14 11 8 7 4 2 2 1 3 4 3 3 4 5 6 6 6 8 4 354 350 350 324 261 240 238 252 319 334 340 342 78 43 23 11 2 9 18 16 19 23 22 21 26 35 343 332 34 51 60 353 4 40 10 49 138 113 69 251 217 223 225 182 195 230 168 155 199 162 177 215 153 155 167 166 208 195 201 183 187 191 161 150 146 152 160
6 6 6 5 3 1 359 358 357 356 357 359 360 359 358 359 0 0 360 2 1 352 344 345 337 297 252 244 247 303 334 3 264 206 72 7 1 356 4 16 17 23 27 33 38 24 30 53 65 61 62 53 334 18 53 344 21 131 107 139 232 202 218 230 195 210 231 139 146 160 108 203 225 150 162 145 140 243 237 214 197 191 180 172 177 163 159 164
357 356 357 356 356 355 353 352 351 351 351 353 355 355 355 354 355 356 355 357 357 348 340 341 335 322 279 246 240 293 355 44 242 225 79 332 349 350 354 6 10 22 25 34 48 38 30 41 58 47 50 51 345 28 66 300 70 68 91 179 214 159 245 241 198 210 152 103 100 120 166 199 159 155 179 160 178 226 230 226 211 190 173 170 172 168 164 166
349 349 349 348 349 348 346 346 345 345 345 346 348 349 350 349 350 353 351 353 354 344 333 338 334 323 305 247 237 281 33 71 244 194 285 281 319 341 350 351 3 16 18 34 47 51 40 27 51 53 44 54 357 42 75 299 39 48 313 245 209 180 229 264 191 204 145 119 138 168 198 148 136 248 203 184 217 225 242 236 196 176 173 165 158 162 167 171
340 343 343 342 342 341 340 339 339 339 339 340 342 344 345 344 345 348 348 350 351 341 328 332 333 316 311 224 230 38 68 248 257 191 273 296 277 326 351 346 4 11 15 36 36 61 65 36 59 108 81 65 279 106 327 308 28 79 21 311 188 184 217 256 163 168 151 169 197 175 131 147 184 232 159 206 233 251 295 237 160 154 158 156 155 166 174 176
333 334 335 338 335 335 335 334 334 334 335 335 337 340 341 340 340 343 345 347 347 337 323 326 323 283 171 125 152 24 347 245 238 221 274 290 273 315 341 349 12 17 48 45 36 102 94 48 89 143 77 82 175 78 347 340 26 73 150 258 177 195 238 262 47 165 188 218 211 141 162 202 202 183 156 228 235 218 59 124 132 140 145 157 167 174 178 179
329 327 329 331 329 330 330 330 331 330 331 332 333 335 337 337 336 339 340 342 345 330 317 326 306 231 203 121 91 22 285 226 201 263 287 280 274 313 331 7 21 28 64 54 49 89 88 84 183 169 130 157 151 66 343 10 347 177 168 218 234 259 279 256 208 221 215 240 144 163 222 262 233 178 247 238 210 146 119 119 133 143 152 170 175 179 181 181
323 323 323 323 325 327 326 327 328 328 329 328 330 332 334 334 332 335 335 339 340 324 318 324 300 240 215 161 81 27 255 204 269 289 312 287 273 316 351 29 27 42 73 65 57 65 84 169 174 140 129 130 128 122 322 57 150 188 175 213 228 275 294 213 213 239 217 258 206 191 242 288 306 263 253 241 169 146 128 132 156 157 167 177 178 187 184 187
314 315 316 318 321 323 323 325 325 326 326 326 328 329 331 331 330 331 331 335 334 321 318 319 302 231 201 132 111 213 227 169 283 311 307 297 33 38 45 38 29 59 84 77 74 74 101 157 145 121 114 129 123 45 297 148 125 157 229 263 292 324 316 148 229 264 142 245 192 177 250 288 17 251 240 208 162 158 144 154 175 172 178 180 180 189 186 196
307 308 309 312 316 318 321 322 323 324 323 324 324 326 329 329 328 328 328 332 329 314 313 318 286 207 177 81 166 214 210 189 256 326 304 344 86 76 56 39 32 56 85 95 100 97 107 147 124 99 338 142 132 12 146 145 112 143 59 326 308 355 18 93 242 219 166 208 176 156 281 261 205 232 244 156 157 152 149 166 180 182 186 184 187 191 194 201
304 306 307 308 311 314 317 318 320 321 320 321 322 325 327 326 326 325 326 329 319 307 319 319 249 201 158 331 224 211 210 207 233 273 347 40 99 81 56 48 51 57 73 100 117 111 107 140 108 107 126 105 122 263 104 55 63 213 47 57 320 360 5 259 78 139 159 192 177 146 293 255 220 235 230 149 156 143 158 182 187 192 192 191 195 194 203 206
302 303 304 307 309 311 313 315 317 318 318 319 320 323 325 326 323 321 324 324 301 296 324 318 217 183 154 259 243 216 221 207 201 223 49 57 116 98 58 55 67 69 74 91 108 108 100 107 93 95 96 86 136 109 39 8 23 352 348 50 18 2 294 284 324 159 166 205 156 130 270 261 249 251 208 172 168 158 175 196 191 197 198 196 202 199 207 210
302 301 302 304 307 309 310 312 314 316 317 317 320 322 325 324 320 320 323 316 280 289 322 285 185 150 87 281 267 229 227 209 203 211 101 58 104 111 57 70 90 80 79 86 95 97 90 97 87 74 351 12 51 60 20 347 7 27 339 313 343 7 275 300 290 186 194 299 122 139 242 270 269 263 207 176 178 176 185 198 196 202 203 200 204 203 209 214
302 301 300 301 305 308 309 312 314 316 316 318 321 321 325 322 317 319 321 296 269 283 318 191 183 141 46 277 278 251 228 209 207 208 189 55 70 87 81 96 95 80 85 87 90 90 73 77 70 57 131 47 65 78 37 5 348 3 44 262 282 269 296 316 323 239 225 139 171 189 234 277 274 267 214 180 183 194 199 204 205 207 206 205 206 205 208 211
303 302 301 301 301 304 309 313 315 316 317 320 322 323 326 321 315 322 327 288 263 255 129 158 170 141 289 252 261 287 233 189 190 194 196 123 64 77 101 99 81 79 85 80 86 72 41 55 53 319 50 52 78 85 37 354 311 324 13 261 257 246 274 303 307 327 49 155 225 231 230 259 265 246 178 192 191 197 210 212 211 211 209 207 207 208 211 209
305 304 302 301 299 300 307 313 315 317 318 321 326 326 323 317 315 326 332 126 94 97 100 96 112 106 284 258 225 266 186 162 176 177 182 162 79 79 105 103 97 78 52 35 41 41 10 26 57 352 13 9 42 87 95 251 226 242 259 259 280 271 240 256 274 299 49 232 235 228 239 257 268 265 198 196 198 202 215 217 214 213 208 208 210 211 213 213
306 305 305 304 300 298 305 313 315 318 320 323 329 328 320 317 324 304 265 96 119 122 192 225 150 154 250 276 269 140 105 133 163 182 167 140 114 102 98 90 94 84 60 25 331 18 54 32 51 83 286 279 220 152 184 209 185 193 207 201 241 270 260 234 238 264 360 296 258 235 237 254 268 274 246 199 201 212 221 225 222 213 207 209 213 215 214 217
305 307 308 307 302 299 304 312 313 318 324 329 337 341 336 345 357 326 331 309 210 193 232 224 204 228 262 290 280 144 130 146 176 182 150 149 143 117 85 53 52 58 105 174 252 18 86 129 233 218 228 232 221 189 175 173 151 149 158 195 235 244 271 255 227 285 8 233 265 243 237 254 261 270 267 207 197 224 226 229 230 211 207 211 210 217 216 218
307 309 310 309 306 302 304 310 312 317 325 333 343 356 99 151 360 307 318 298 262 232 255 238 207 252 262 256 234 159 133 324 297 176 159 163 127 140 260 30 81 70 258 179 200 13 65 211 232 225 221 211 194 164 131 125 121 108 177 233 270 232 258 270 252 312 333 178 267 268 249 256 254 265 273 224 192 225 220 221 230 213 210 215 211 219 218 216
307 311 312 313 310 305 306 310 312 315 322 332 352 84 144 161 165 194 49 298 290 266 239 255 223 261 256 230 220 143 97 306 306 279 176 147 89 190 246 66 139 208 292 117 129 360 5 244 239 226 192 114 88 120 115 113 126 112 151 201 278 246 271 291 311 355 348 179 269 288 274 262 256 259 266 252 222 232 223 216 226 214 210 216 214 218 215 209
307 312 315 316 313 307 308 311 310 313 317 327 39 129 147 147 146 152 119 276 291 291 222 237 210 231 254 244 204 154 146 218 262 271 180 147 112 191 162 114 152 181 119 160 171 173 246 254 247 197 142 110 81 94 107 97 126 157 157 180 258 265 297 285 308 345 298 227 271 287 280 264 255 251 259 258 242 245 237 223 227 215 212 218 215 215 209 205
305 307 311 316 315 309 310 314 309 304 302 310 117 151 158 148 145 152 104 14 287 291 253 216 195 196 197 206 175 156 165 204 202 249 177 150 143 161 159 153 147 176 229 190 170 196 236 244 166 117 122 130 133 137 137 151 257 246 202 203 240 255 234 235 290 328 311 305 318 306 292 271 241 237 254 273 289 268 244 222 235 225 220 226 221 220 214 208
297 301 311 316 315 312 314 318 314 300 291 246 149 151 151 158 162 153 70 15 284 297 285 222 207 200 179 125 150 162 143 219 215 224 181 157 153 145 166 165 157 207 214 156 153 232 258 236 134 126 116 130 154 193 191 174 214 292 232 211 226 241 245 259 330 349 350 321 335 8 318 284 199 219 259 285 302 277 243 211 236 231 221 226 226 224 216 211
292 300 313 316 314 317 319 317 327 337 310 239 167 157 153 169 179 169 82 41 279 276 271 200 185 178 170 128 146 154 114 277 258 163 146 170 176 145 143 160 46 209 178 135 156 232 264 15 95 141 149 141 168 230 231 170 145 291 250 202 208 207 211 265 346 359 297 263 300 52 297 272 265 187 255 262 262 272 270 247 243 234 220 219 225 224 211 208
295 299 310 310 312 321 326 308 320 331 309 245 170 178 177 174 187 192 47 8 277 237 154 229 252 158 173 180 146 142 179 265 352 94 123 150 201 96 154 203 131 201 182 129 218 240 157 90 66 113 122 140 183 241 224 157 134 242 228 130 129 133 159 186 127 245 243 277 299 178 181 273 278 236 244 252 259 275 275 267 259 238 223 221 226 223 211 208
295 299 305 304 306 315 313 301 310 323 297 197 161 189 189 181 196 153 64 280 270 161 132 258 105 126 147 87 79 114 211 277 114 222 324 96 189 74 176 221 177 188 188 140 217 260 137 158 179 146 123 178 205 225 192 159 156 238 193 119 110 123 149 149 133 226 278 9 295 220 156 275 273 243 266 287 256 261 263 263 261 244 225 225 227 222 215 211
293 299 300 295 298 306 304 294 293 301 301 196 175 206 184 189 203 74 90 242 266 64 96 84 126 127 56 84 41 56 351 344 138 258 344 75 198 71 173 212 150 157 183 143 221 257 112 194 192 150 156 213 210 222 182 165 187 197 137 101 72 77 81 85 121 183 44 341 267 229 165 240 272 223 160 69 219 239 249 256 260 252 231 224 226 222 215 210
288 297 296 288 285 300 306 292 279 279 285 258 216 188 167 179 122 112 219 239 256 222 114 120 174 161 103 124 265 307 195 257 259 350 14 81 9 34 128 172 99 118 345 351 270 258 330 287 186 154 184 193 142 94 114 133 145 134 107 71 39 42 51 49 66 82 48 274 268 235 180 197 278 239 175 184 206 207 219 245 264 267 253 231 224 219 210 206
281 286 293 283 264 280 308 309 311 297 272 256 202 165 133 49 90 177 226 240 257 238 146 177 203 131 138 159 202 196 169 262 233 136 134 174 28 38 83 154 89 78 355 323 287 301 340 324 224 232 165 129 99 80 54 61 102 112 87 61 23 345 18 19 356 49 47 255 273 274 186 190 247 248 203 226 242 211 198 220 242 251 258 242 223 217 208 204
272 274 287 278 247 256 276 273 337 342 297 234 171 128 95 105 224 198 224 265 255 215 173 181 203 170 173 174 195 180 167 223 202 164 163 159 168 182 194 190 162 88 311 250 268 332 298 225 233 266 170 139 113 87 22 2 54 100 94 81 57 326 350 343 313 95 228 251 262 267 177 214 246 246 230 238 251 236 214 218 229 244 258 247 221 217 211 199
264 262 270 266 248 256 261 257 289 315 307 230 169 64 86 211 234 181 183 226 221 208 146 128 136 153 149 147 223 194 162 217 192 167 170 141 172 230 246 218 173 171 249 211 254 333 292 287 175 169 251 177 153 162 214 248 150 148 147 132 141 143 62 273 273 278 269 271 264 184 163 255 271 258 227 224 232 228 221 226 230 241 256 250 226 213 208 201
264 255 250 251 250 248 244 251 264 279 314 332 99 80 132 230 235 157 192 221 230 357 60 101 93 110 149 186 229 191 175 228 177 151 176 134 160 236 240 225 198 149 120 144 184 189 244 283 213 174 235 182 178 194 167 139 146 172 154 136 159 159 168 222 232 244 273 292 275 226 185 234 266 284 223 221 235 237 235 249 255 259 260 252 234 213 206 206
264 249 240 245 244 232 224 244 254 255 311 18 118 144 208 223 201 158 205 212 206 335 32 53 89 114 227 264 265 225 206 233 153 132 180 178 185 211 202 202 194 158 128 163 224 166 216 266 252 177 312 162 179 218 104 113 134 196 126 117 185 186 169 208 213 194 245 322 284 223 221 232 238 287 258 236 257 248 244 270 273 265 258 227 230 224 210 207
259 242 236 236 235 231 227 234 237 230 244 107 152 209 225 220 174 182 202 174 180 159 117 25 84 136 248 274 252 244 219 223 154 144 206 212 219 218 200 206 191 179 176 176 198 170 198 272 302 35 351 140 166 217 109 141 179 163 144 176 216 185 133 143 265 32 67 304 273 233 254 273 302 289 255 206 229 241 244 259 251 254 250 210 229 227 211 207
246 237 230 223 227 232 228 221 207 196 152 113 197 222 223 214 188 183 179 158 166 133 131 205 202 174 217 236 220 206 170 187 177 170 208 216 236 209 195 239 195 188 198 190 199 211 186 262 305 93 215 269 169 177 37 18 142 133 183 212 197 131 95 106 237 342 34 251 272 282 268 279 289 284 291 119 202 241 241 240 246 254 244 222 236 233 212 205
232 233 238 228 226 222 215 204 185 171 115 129 226 237 217 197 210 183 158 147 130 124 154 211 213 183 196 210 217 184 170 190 178 176 202 209 244 193 164 208 205 195 205 193 204 245 156 238 292 93 202 278 30 108 216 324 107 132 201 224 126 143 168 116 154 233 245 233 270 283 283 278 256 250 269 186 200 228 235 236 247 250 237 229 238 233 209 196
215 229 258 228 221 216 202 187 172 160 130 182 225 239 210 203 235 213 189 172 131 154 189 224 225 200 193 187 184 174 181 193 175 180 204 194 234 205 162 196 208 198 205 181 185 230 119 198 264 294 235 281 43 176 192 201 82 82 282 310 13 167 177 164 154 179 184 201 264 291 299 281 249 210 237 227 198 203 217 228 239 239 232 226 230 226 202 195
190 230 271 198 203 203 187 173 163 164 197 210 223 229 188 214 241 234 219 200 170 183 205 229 230 231 220 194 194 191 196 207 183 189 222 198 223 238 197 198 173 158 182 139 172 201 103 192 230 263 323 236 192 210 197 187 176 170 201 226 236 173 112 206 218 143 142 180 237 272 281 276 266 165 209 222 187 193 202 212 233 235 229 225 225 219 202 201
167 231 238 180 184 181 167 162 183 190 207 231 237 236 226 211 216 238 238 199 198 236 175 182 204 214 208 200 219 184 173 214 198 195 242 219 219 243 211 189 153 138 112 76 180 206 152 186 208 193 229 220 212 233 209 195 178 176 194 197 194 173 122 203 246 212 160 185 206 180 252 273 273 141 188 208 176 193 200 212 232 229 220 226 223 216 207 203
182 224 193 173 174 167 157 177 218 195 216 229 227 232 219 204 204 225 229 193 200 243 282 209 208 206 202 192 194 175 169 205 207 204 243 229 218 232 213 168 146 146 145 138 205 207 120 122 222 227 230 225 243 313 218 201 155 186 217 195 179 171 154 191 227 220 186 203 194 112 261 271 268 124 143 196 190 210 212 214 231 223 216 227 224 218 215 207
207 205 135 168 172 165 162 216 217 209 233 227 231 243 206 193 219 212 206 202 199 197 221 236 201 201 222 193 166 189 194 207 208 199 223 244 231 230 187 148 146 148 147 142 165 131 87 126 225 254 281 329 340 350 39 52 68 226 239 183 171 199 196 203 216 176 158 209 178 102 245 260 268 81 113 190 183 235 238 216 220 227 224 230 226 219 214 206
205 183 99 173 176 173 180 210 205 217 227 225 237 239 231 228 223 215 205 205 202 188 210 227 202 202 225 184 179 207 196 205 224 204 206 234 244 225 166 154 158 168 186 194 177 172 182 177 181 246 290 305 307 328 348 317 202 220 237 190 197 219 208 184 65 125 230 217 162 144 242 251 263 60 92 48 340 254 255 227 212 230 231 226 227 221 207 196
177 163 70 182 184 186 204 209 193 209 217 221 232 234 241 258 234 221 217 215 211 188 212 234 206 196 208 178 204 223 202 212 233 218 212 227 255 272 169 173 181 189 205 207 154 165 181 182 176 205 233 241 246 248 235 216 187 218 244 208 212 216 201 200 212 190 233 217 154 195 243 254 267 264 141 44 270 252 256 243 226 234 235 231 227 214 202 195
175 180 150 184 195 204 227 226 194 203 211 214 227 230 229 240 251 225 212 219 222 197 218 259 189 185 203 195 218 233 225 225 227 227 229 222 238 289 191 191 201 202 303 59 143 152 158 193 203 215 224 230 241 244 178 127 147 200 223 217 217 214 204 215 230 210 222 215 181 228 244 258 270 266 261 265 263 261 263 259 252 239 233 232 227 214 203 198
187 208 176 169 199 215 226 228 211 216 206 183 197 214 217 228 245 241 202 208 201 192 219 248 202 198 208 202 214 230 229 226 228 237 241 230 234 292 354 191 235 260 14 24 173 149 122 225 222 226 232 236 248 247 172 142 191 208 213 223 224 215 203 209 227 227 221 213 230 243 246 252 262 264 267 268 267 269 270 269 261 238 229 225 218 207 197 196
191 217 185 174 184 196 211 215 205 208 209 192 197 217 221 226 230 224 208 194 179 187 204 229 217 217 217 206 208 227 227 227 233 237 238 231 217 241 350 53 234 207 119 342 261 157 165 235 233 231 239 244 252 248 183 169 230 225 215 231 228 210 201 212 229 232 220 216 240 247 248 252 257 261 265 265 264 265 271 276 265 229 229 223 205 196 198 198
197 254 198 184 198 197 203 211 204 203 210 209 213 225 230 234 231 221 178 132 207 202 201 220 224 220 220 215 209 220 222 223 232 232 230 228 212 185 212 246 250 183 161 189 267 177 176 240 240 238 249 250 251 248 200 188 241 250 243 246 236 202 200 221 234 233 223 229 242 250 256 258 259 260 262 265 267 269 277 284 276 248 235 218 205 207 208 201
197 211 197 192 213 210 210 212 202 203 211 210 216 225 229 237 239 232 176 178 213 210 200 223 234 222 212 216 219 228 230 227 234 238 218 207 211 185 202 227 216 71 194 197 232 238 211 236 244 242 254 254 253 250 212 202 234 248 255 256 249 220 215 232 239 234 226 238 246 253 261 262 260 261 264 269 273 276 276 275 272 265 249 221 214 218 211 201
220 217 192 197 218 208 211 212 197 203 213 206 214 223 225 232 235 234 219 204 217 217 196 219 235 232 193 209 220 231 235 232 238 247 221 178 203 206 211 214 175 146 196 200 171 199 205 228 269 205 240 254 257 245 202 201 228 248 253 255 251 237 230 237 242 228 221 236 248 255 257 256 260 266 270 270 268 266 265 265 265 264 250 220 219 224 212 203
231 229 192 215 230 201 204 217 204 203 212 205 211 218 221 230 233 231 238 231 223 224 213 210 225 228 202 216 224 230 237 240 245 254 251 224 227 234 232 210 177 170 181 185 186 187 183 208 226 196 231 256 262 180 151 149 198 249 248 247 245 244 242 243 248 238 226 228 238 246 247 250 261 272 272 270 269 262 259 259 257 258 249 225 221 223 213 207